Location: Brede
(50.9167°N, 0.6000°E)
Time: 20:44:49
(UTC+00:00)

Vanguard 1 Rocket - Pass Details

Date: 03 December 2020
Orbit: 655 x 4221 km, 34.3° (Epoch: 17 January)

Event Time Altitude Azimuth Distance (km) Brightness Sun altitude
Exits shadow 03:19:48 45° 208° (SSW) 4,496 10.4 -40.0°
Maximum altitude 03:23:06 47° 189° (S) 4,219 10.4 -39.5°
Drops below altitude 10° 03:38:23 10° 122° (ESE) 5,076 11.6 -37.2°
Sets 03:41:39 0° 116° (ESE) 5,689 12.1 -36.7°
